Browse Search Popular Register Upload Rules User list Login:
Search:
carl00s01
Username: carl00s01
Date registered: 2009/08/15 18:27:06
Scenes: 25
Subscribers: 8
Comments: 71
Downloads by you: 1902
Title Author Rating Downloads Comments Date added
Response to robotmaker carl00s01 5 (1 vote) 217 4 2016/09/13 02:50:19
geometries types carl00s01 5 (1 vote) 83 0 2016/08/18 22:49:14
Ravenplucker's Laser carl00s01 5 (1 vote) 57 1 2016/07/30 04:03:00
Push Push Button Mechanism carl00s01 6.5 (4 votes) 1333 7 2015/10/06 02:29:57
Defense System [+Explosion] carl00s01 5 (1 vote) 542 2 2014/11/20 18:56:55
Realistic Fire [2.1.0 b13] carl00s01 6.8 (6 votes) 2326 11 2014/01/12 06:27:00
Fire - Changeable Color [2.1.0 b13] carl00s01 5.6 (2 votes) 1283 6 2014/01/11 17:34:34
One thruster Stabilizer with Smoke [Mouse Controlled] carl00s01 6.9 (6 votes) 2614 8 2013/12/24 20:01:56
2D Wave Pattern carl00s01 5.6 (2 votes) 855 2 2013/09/12 17:47:08
Example to ulfwil carl00s01 5 (1 vote) 255 0 2013/03/22 20:53:04
Realistic Smoke Example [2.1.0+] carl00s01 6.1 (3 votes) 1618 6 2013/03/18 21:54:51
One thruster stabilization carl00s01 5.6 (2 votes) 611 5 2013/03/07 07:24:24
3D Mechanical Wave - Kinetic Sculpture carl00s01 7 (6 votes) 1562 11 2013/02/27 18:12:37
Visible Light Wave - frequency and color carl00s01 5.6 (2 votes) 1069 1 2012/12/16 06:13:05
Jetpack Project carl00s01 5 (1 vote) 2137 4 2012/12/15 03:08:59
Just a Stabilizer tech carl00s01 5.6 (2 votes) 632 6 2012/10/21 22:02:21
Color Of Velocity carl00s01 5.6 (2 votes) 526 2 2012/08/25 21:02:29
53 High Res Weapon Texture Pack(!READ DESCRIPTION!) carl00s01 5 (1 vote) 264 0 2010/12/07 02:37:52
Trebuchet carl00s01 5 (1 vote) 647 0 2010/11/23 19:27:09
Trebuchet carl00s01 5 (1 vote) 137 0 2010/11/23 19:25:47
Dragster Car carl00s01 5 (1 vote) 912 2 2009/08/30 22:01:19
Helicopter Breakable(coment and rate) carl00s01 5 (1 vote) 696 0 2009/08/23 22:03:41
Breakable Car Unfinished carl00s01 5 (1 vote) 617 3 2009/08/15 18:30:24
show grid
User's favorites
Title: Dog walk cycle demo (Wankoroid 3 Rev.3)
Rating: 8.4647
Filesize: 0.76 MB
Downloads: 5859
Comments: 7
Ratings: 17
Date added: 2011/06/11 11:43:23
Made with: Phun
Rating: rated 8.5
download